[[{"header":{"parameterUnit":"m.s-1","parameterCategory":1,"la1":30.2991,"la2":30.254,"lo1":-89.0895,"lo2":-89.0444,"dy":0.0017,"dx":0.0017,"nx":28,"ny":28,"refTime":"2026-01-02T03:00:00:Z","depth":0,"parameterNumber":2,"parameterNumberName":"U-component_of_WINDS"},"data":[0,0,0,0,0,0,0,0,0,0,0,0,0,0,0,0,0,0,0,0,0,0,0,0,0,0,0,0,0,0,0,0,0,0,0,0,0,0,0,0,0,0,0,0,0,0,0,0,0,0,0,0,0,0,0,0,0,0,1.6874,1.6874,0,1.6886,1.6886,1.6886,1.6845,1.6843,1.6842,1.6841,1.6854,1.6855,1.6857,0,0,0,0,0,0,0,0,0,0,0,0,0,1.6816,1.6817,1.6874,1.6874,1.6874,1.6886,1.6886,1.6886,1.6845,1.6843,1.6842,1.684,1.6853,1.6855,1.6857,0,0,0,0,0,0,0,0,0,0,0,0,0,1.6836,1.6817,1.6874,1.6855,1.6853,1.6886,1.6886,1.6886,1.6845,1.6843,1.6841,1.684,1.6853,1.6855,1.6857,1.6908,0,0,1.6864,1.6865,0,0,0,0,0,0,0,0,1.6834,1.6838,1.6858,1.6856,1.6855,1.6862,1.687,1.6894,1.6846,1.6848,1.6841,1.6839,1.6858,1.686,1.6866,1.6909,1.6909,1.6864,1.6865,1.6866,1.6867,0,0,0,0,0,0,0,1.6833,1.6837,1.6878,1.6858,1.6856,1.6846,1.6847,1.6874,1.6863,1.6848,1.6845,1.6847,1.6857,1.6864,1.6866,1.691,1.6864,1.6866,1.6867,1.6868,1.6995,1.6997,0,0,0,0,0,0,1.6834,1.6836,1.6878,1.6879,1.684,1.6848,1.6849,1.6861,1.6863,1.6861,1.6848,1.6845,1.6861,1.6863,1.6866,1.6926,1.6866,1.6868,1.687,1.6993,1.6996,1.6998,0,0,0,0,0,0,1.6833,1.6838,1.6878,1.6857,1.6861,1.6851,1.6865,1.6863,1.687,1.6863,1.6861,1.6858,1.686,1.6863,1.6898,1.6926,1.6869,1.6872,1.6991,1.6994,1.6997,1.7047,0,0,0,0,0,0,1.6832,1.6838,1.6857,1.6857,1.6862,1.6909,1.6867,1.6864,1.6874,1.6869,1.6872,1.687,1.6858,1.6895,1.69,1.6928,1.6873,1.6988,1.6992,1.6996,1.7043,1.7052,1.7059,0,0,0,0,0,1.683,1.6871,1.6859,1.6864,1.6886,1.6911,1.6914,1.6899,1.6876,1.6895,1.6891,1.687,1.6922,1.6899,1.6905,1.6934,1.6987,1.6991,1.6996,1.704,1.705,1.7059,0,0,0,0,0,0,1.6875,1.6871,1.6857,1.69,1.6906,1.6904,1.6928,1.6911,1.6924,1.6919,1.69,1.6901,1.694,1.694,1.6914,1.6984,1.695,1.6956,1.6982,1.6992,1.7,1.6999,1.6875,0,0,0,0,0,1.689,1.691,1.6906,1.6944,1.6948,1.6938,1.6948,1.6936,1.6942,1.6944,1.6943,1.695,1.6967,1.698,1.6996,1.7043,1.7043,1.7066,1.7074,1.708,1.7086,1.7111,1.7121,1.7013,1.7013,1.7013,0,0,1.6921,1.6921,1.6935,1.6953,1.6957,1.6978,1.694,1.6965,1.6981,1.6948,1.6981,1.698,1.6987,1.7028,1.7046,1.703,1.7116,1.7086,1.7092,1.7093,1.7117,1.7127,1.7136,1.7016,1.7015,1.7015,0,0,1.6989,1.6991,1.7023,1.7028,1.7033,1.7026,1.7034,1.7035,1.7033,1.7066,1.7042,1.7061,1.7092,1.7097,1.7104,1.7174,1.7156,1.718,1.7222,1.7247,1.7255,1.7263,1.7288,1.7298,1.7186,1.7186,1.7186,0,1.7026,1.7058,1.7042,1.7068,1.7077,1.7048,1.7081,1.7086,1.7097,1.7104,1.7085,1.7123,1.7125,1.7168,1.7185,1.7191,1.72,1.718,1.7256,1.7263,1.727,1.7294,1.7303,1.7189,1.7188,1.7188,1.7188,0,1.7105,1.7127,1.7152,1.7164,1.7175,1.7204,1.7193,1.7206,1.7194,1.7189,1.7223,1.7224,1.724,1.7249,1.7237,1.729,1.728,1.7259,1.7225,1.7283,1.7305,1.7314,1.7193,1.7192,1.7191,1.719,0,0,1.7201,1.7203,1.7213,1.7217,1.7222,1.7239,1.7267,1.7283,1.7295,1.7303,1.7327,1.7354,1.7334,1.7342,1.7331,1.7352,1.7408,1.7328,1.7328,1.7343,1.7467,1.7483,1.7494,1.7396,1.7397,1.7399,1.7467,0,1.7267,1.7316,1.7302,1.735,1.7371,1.7344,1.7369,1.7375,1.7371,1.7388,1.7383,1.7403,1.7376,1.738,1.7401,1.7397,1.7433,1.7392,1.7418,1.7419,1.7417,1.7506,1.7522,1.7587,1.7475,1.7477,1.7478,0,1.7351,1.7364,1.7414,1.7415,1.7424,1.7446,1.7459,1.7476,1.7482,1.7477,1.7487,1.747,1.7498,1.7465,1.7503,1.7476,1.7485,1.7485,1.7487,1.7489,1.7452,1.751,1.7607,1.7616,1.7491,1.749,1.7489,0,1.7417,1.7446,1.748,1.7485,1.7487,1.7503,1.7505,1.7509,1.752,1.7531,1.7538,1.7553,1.7561,1.7573,1.7562,1.7538,1.7602,1.7568,1.76,1.76,1.7614,1.7614,1.7714,1.7621,1.762,1.762,1.762,0,1.7493,1.7525,1.7509,1.753,1.7565,1.7549,1.7584,1.7583,1.7587,1.7607,1.7585,1.7605,1.7589,1.7607,1.7598,1.7631,1.7635,1.7633,1.763,1.7635,1.7635,1.7641,1.7636,1.7623,1.7622,1.7622,1.7621,0,1.7571,1.7562,1.7597,1.7597,1.7598,1.7624,1.7623,1.7643,1.7637,1.7663,1.7669,1.7661,1.7681,1.7671,1.7692,1.7686,1.7729,1.7721,1.7727,1.7725,1.7758,1.7755,1.7866,1.7879,1.7777,1.7778,1.7779,0,1.762,1.7644,1.7646,1.7659,1.7662,1.7682,1.7692,1.7678,1.7689,1.7698,1.7717,1.7735,1.7749,1.7783,1.7779,1.7796,1.7787,1.7825,1.779,1.7794,1.7788,1.7787,1.7789,1.7832,1.7833,1.7834,1.7835,0,1.7708,1.7702,1.7718,1.7733,1.7747,1.7757,1.7766,1.7778,1.7763,1.7778,1.7798,1.7809,1.7831,1.785,1.7864,1.7866,1.7849,1.7846,1.7854,1.786,1.7863,1.7862,1.7747,1.7844,1.7843,1.7842,1.7842,1.7841,1.7773,1.7793,1.7798,1.7817,1.7822,1.7832,1.785,1.7847,1.7864,1.7881,1.7871,1.7895,1.7901,1.7918,1.7923,1.7942,1.7927,1.7939,1.7942,1.7945,1.795,1.786,1.7944,1.7944,1.7944,1.7943,1.7943,0,1.786,1.7862,1.7879,1.7893,1.7908,1.789,1.7899,1.7913,1.7934,1.7941,1.7955,1.798,1.7998,1.7996,1.8012,1.8028,1.802,1.8033,1.8032,1.8032,1.7962,1.7953,1.8039,1.8039,1.8039,1.8039,1.8039,1.8039,1.7907,1.794,1.7935,1.7971,1.7973,1.7997,1.8003,1.8012,1.8017,1.8045,1.806,1.8058,1.8062,1.8079,1.8095,1.8094,1.8101,1.8117,1.8113,1.8047,1.8037,1.8028,1.802,1.8118,1.8119,1.8182,1.8182,1.8183]},{"header":{"parameterUnit":"m.s-1","parameterCategory":1,"la1":30.2991,"la2":30.254,"lo1":-89.0895,"lo2":-89.0444,"dy":0.0017,"dx":0.0017,"nx":28,"ny":28,"refTime":"2026-01-02T03:00:00:Z","depth":0,"parameterNumber":3,"parameterNumberName":"V-component_of_WINDS"},"data":[0,0,0,0,0,0,0,0,0,0,0,0,0,0,0,0,0,0,0,0,0,0,0,0,0,0,0,0,0,0,0,0,0,0,0,0,0,0,0,0,0,0,0,0,0,0,0,0,0,0,0,0,0,0,0,0,0,0,6.6293,6.6295,0,6.6439,6.644,6.6442,6.6431,6.6428,6.6426,6.6424,6.6572,6.6577,6.6583,0,0,0,0,0,0,0,0,0,0,0,0,0,6.6005,6.601,6.6293,6.6295,6.6297,6.6438,6.644,6.6442,6.6431,6.6428,6.6426,6.6423,6.657,6.6577,6.6584,0,0,0,0,0,0,0,0,0,0,0,0,0,6.6138,6.6012,6.6293,6.6308,6.6311,6.6438,6.644,6.6443,6.6432,6.6428,6.6425,6.6422,6.6567,6.6576,6.6585,6.6706,0,0,6.6612,6.6616,0,0,0,0,0,0,0,0,6.6131,6.6149,6.6304,6.6307,6.6311,6.6413,6.6393,6.6531,6.6432,6.6386,6.6424,6.642,6.6521,6.6534,6.6568,6.6712,6.6719,6.6613,6.6618,6.6622,6.6625,0,0,0,0,0,0,0,6.6121,6.6142,6.635,6.6306,6.631,6.6308,6.6323,6.6419,6.647,6.6389,6.6389,6.6406,6.6523,6.656,6.6572,6.6721,6.6613,6.6621,6.6626,6.663,6.6974,6.6978,0,0,0,0,0,0,6.6109,6.6135,6.6346,6.6355,6.6211,6.6316,6.6333,6.6383,6.6469,6.6479,6.6409,6.6405,6.6546,6.6561,6.6577,6.6726,6.6622,6.6631,6.6636,6.6971,6.6975,6.6979,0,0,0,0,0,0,6.6103,6.6128,6.634,6.6245,6.6272,6.6324,6.6381,6.6388,6.6425,6.6484,6.6493,6.6438,6.6544,6.6564,6.6675,6.6731,6.6635,6.6643,6.6966,6.6972,6.6977,6.7024,0,0,0,0,0,0,6.6094,6.6126,6.6172,6.6246,6.6277,6.6435,6.6385,6.6393,6.6441,6.6437,6.6513,6.6523,6.6543,6.6661,6.6683,6.6742,6.665,6.6961,6.6969,6.6976,6.7018,6.7031,6.7042,0,0,0,0,0,6.6084,6.6178,6.6174,6.62,6.6336,6.6438,6.6456,6.6478,6.6445,6.6493,6.6531,6.652,6.6721,6.6673,6.6697,6.6759,6.6958,6.6967,6.6975,6.7013,6.7028,6.7042,0,0,0,0,0,0,6.6108,6.6188,6.6185,6.6305,6.6366,6.6436,6.6497,6.6494,6.6564,6.6558,6.6582,6.6599,6.671,6.6745,6.669,6.6882,6.6835,6.6849,6.6855,6.6871,6.6883,6.6873,6.6657,0,0,0,0,0,6.6128,6.6205,6.627,6.637,6.6401,6.6444,6.6489,6.6501,6.6564,6.6589,6.6635,6.6696,6.6774,6.6824,6.6898,6.7023,6.704,6.7078,6.709,6.7099,6.7111,6.7183,6.7201,6.7007,6.7007,6.7007,0,0,6.6168,6.6222,6.6268,6.6377,6.6425,6.6505,6.6465,6.655,6.661,6.6602,6.671,6.6746,6.6816,6.6935,6.6989,6.6967,6.7169,6.711,6.7117,6.7125,6.7194,6.7212,6.7228,6.7013,6.7012,6.7011,0,0,6.6284,6.6331,6.6422,6.6471,6.6545,6.6573,6.6594,6.6667,6.6691,6.6799,6.6796,6.6867,6.6998,6.705,6.7093,6.723,6.7224,6.7253,6.7317,6.7386,6.7401,6.7415,6.7467,6.7484,6.7265,6.7265,6.7265,0,6.6325,6.6446,6.6468,6.6555,6.6604,6.6601,6.6694,6.674,6.6834,6.6868,6.6842,6.7009,6.7056,6.7188,6.7222,6.7256,6.7283,6.7245,6.7397,6.7411,6.7424,6.7474,6.7493,6.7268,6.7268,6.7268,6.7267,0,6.6494,6.6578,6.6642,6.6734,6.679,6.6879,6.6915,6.6969,6.6976,6.7007,6.7119,6.7175,6.7262,6.7294,6.7301,6.7428,6.7413,6.7392,6.7346,6.7446,6.7493,6.7512,6.7273,6.7272,6.7271,6.727,0,0,6.6629,6.6734,6.6757,6.6801,6.6882,6.6948,6.7037,6.7123,6.717,6.7234,6.7311,6.7424,6.7406,6.7455,6.7468,6.7529,6.7638,6.7501,6.7503,6.7527,6.7784,6.7801,6.7822,6.7633,6.7637,6.764,6.7779,0,6.6754,6.6914,6.6938,6.7079,6.7158,6.7158,6.7236,6.7295,6.7327,6.7398,6.7433,6.7514,6.7482,6.7513,6.7572,6.7612,6.769,6.7602,6.7707,6.771,6.7691,6.7846,6.7864,6.7992,6.7797,6.78,6.7802,0,6.6922,6.6994,6.7144,6.7218,6.7251,6.7321,6.7404,6.7471,6.7539,6.7558,6.7614,6.7621,6.7714,6.7663,6.7794,6.7734,6.7778,6.7804,6.7809,6.7821,6.7763,6.7865,6.8033,6.8053,6.7831,6.7829,6.7826,0,6.7009,6.7142,6.725,6.7286,6.7374,6.7424,6.7463,6.7527,6.7578,6.765,6.7684,6.7764,6.7809,6.7872,6.7901,6.786,6.8031,6.7981,6.805,6.805,6.8087,6.8085,6.8267,6.8112,6.8112,6.8112,6.8111,0,6.7148,6.724,6.729,6.7357,6.746,6.7487,6.7589,6.7626,6.7683,6.7758,6.7761,6.783,6.7863,6.7938,6.7961,6.8067,6.8086,6.8105,6.8111,6.8107,6.8105,6.8137,6.813,6.8117,6.8116,6.8115,6.8114,0,6.7263,6.73,6.7417,6.7492,6.7513,6.7586,6.765,6.7715,6.7746,6.784,6.7864,6.7914,6.8002,6.8037,6.8144,6.8159,6.8283,6.828,6.8261,6.8263,6.8331,6.8325,6.8542,6.8573,6.8396,6.8397,6.8399,0,6.735,6.7421,6.7504,6.7555,6.7596,6.7676,6.7729,6.7758,6.7813,6.7897,6.7952,6.804,6.8113,6.8254,6.83,6.8383,6.8383,6.8454,6.8395,6.839,6.8387,6.8384,6.8392,6.8465,6.8467,6.8468,6.8469,0,6.7502,6.7518,6.7594,6.7678,6.7741,6.7808,6.7873,6.7914,6.7952,6.8014,6.8105,6.8161,6.8272,6.8361,6.8447,6.8487,6.8486,6.8487,6.8508,6.8505,6.8492,6.8503,6.8292,6.8482,6.8481,6.848,6.8479,6.8479,6.7608,6.7672,6.7742,6.7827,6.7879,6.7941,6.8006,6.8047,6.8124,6.8217,6.8229,6.8327,6.8395,6.851,6.8554,6.8632,6.8613,6.8643,6.8651,6.8658,6.8665,6.8478,6.8647,6.8647,6.8647,6.8646,6.8646,0,6.7762,6.7807,6.7886,6.7978,6.8046,6.8039,6.8111,6.8168,6.8255,6.8318,6.839,6.8496,6.8582,6.8636,6.8723,6.8775,6.8777,6.8797,6.8795,6.8805,6.8675,6.8649,6.8794,6.8794,6.8794,6.8794,6.8794,6.8794,6.7851,6.7961,6.7985,6.8121,6.8165,6.8262,6.8305,6.8362,6.8413,6.8531,6.8604,6.8638,6.8698,6.879,6.8869,6.8883,6.8916,6.8938,6.895,6.8828,6.8813,6.8799,6.8775,6.8944,6.8945,6.9074,6.9075,6.9076]}]]